When you browse on this site, cookies collect data to enhance your experience and personalize the content and advertising you see.
Visit our Privacy Policy to learn more. By continuing to use the site, you agree to this use of cookies and data.

Meteo pe oră la Porto-Novo

Astăzi, 5 August, Miercuri

Timp Temperatura Precipitaţii Vânt Presiune Umiditate
00:00 +24°C° 0 mm 3 m/s 761 mmHg 89%
01:00 +24°C° 0 mm 3 m/s 760 mmHg 90%
02:00 +24°C° 0 mm 3 m/s 760 mmHg 90%
03:00 +22°C° 0 mm 3 m/s 760 mmHg 91%
04:00 +22°C° 0 mm 3 m/s 760 mmHg 92%
05:00 +22°C° 0 mm 3 m/s 760 mmHg 92%
06:00 +22°C° 0 mm 3 m/s 760 mmHg 93%
07:00 +25°C° 0 mm 3 m/s 761 mmHg 86%
08:00 +26°C° 0 mm 4 m/s 761 mmHg 80%
09:00 +27°C° 0 mm 4 m/s 761 mmHg 73%
10:00 +29°C° 0 mm 4 m/s 761 mmHg 69%
11:00 +30°C° 0 mm 4 m/s 761 mmHg 64%
12:00 +32°C° 0 mm 5 m/s 760 mmHg 59%
13:00 +30°C° 0 mm 5 m/s 760 mmHg 60%
14:00 +30°C° 0 mm 5 m/s 759 mmHg 61%
15:00 +30°C° 0 mm 5 m/s 758 mmHg 62%
16:00 +28°C° 0 mm 5 m/s 758 mmHg 68%
17:00 +27°C° 0 mm 5 m/s 758 mmHg 73%
18:00 +26°C° 0 mm 5 m/s 758 mmHg 79%
19:00 +26°C° 0 mm 5 m/s 759 mmHg 80%
20:00 +25°C° 0 mm 4 m/s 760 mmHg 82%
21:00 +25°C° 0 mm 4 m/s 760 mmHg 84%
22:00 +25°C° 0 mm 4 m/s 760 mmHg 84%
23:00 +25°C° 0 mm 4 m/s 760 mmHg 85%

Mâine, 6 August, Joi

Timp Temperatura Precipitaţii Vânt Presiune Umiditate
00:00 +25°C° 0 mm 4 m/s 761 mmHg 85%
01:00 +25°C° 0 mm 4 m/s 760 mmHg 84%
02:00 +25°C° 0 mm 4 m/s 760 mmHg 82%
03:00 +25°C° 0 mm 5 m/s 759 mmHg 81%
04:00 +25°C° 0 mm 5 m/s 760 mmHg 80%
05:00 +25°C° 0 mm 5 m/s 760 mmHg 80%
06:00 +25°C° 0 mm 5 m/s 760 mmHg 79%
07:00 +26°C° 0 mm 5 m/s 760 mmHg 77%
08:00 +26°C° 0 mm 6 m/s 761 mmHg 74%
09:00 +27°C° 0 mm 6 m/s 761 mmHg 72%
10:00 +27°C° 0 mm 6 m/s 761 mmHg 71%
11:00 +27°C° 0 mm 6 m/s 761 mmHg 71%
12:00 +27°C° 0 mm 5 m/s 761 mmHg 70%
13:00 +27°C° 0 mm 5 m/s 760 mmHg 70%
14:00 +27°C° 0 mm 6 m/s 760 mmHg 70%
15:00 +27°C° 0 mm 6 m/s 759 mmHg 70%
16:00 +27°C° 0 mm 5 m/s 759 mmHg 71%
17:00 +26°C° 0 mm 5 m/s 759 mmHg 73%
18:00 +26°C° 0 mm 5 m/s 760 mmHg 74%
19:00 +26°C° 0 mm 5 m/s 760 mmHg 76%
20:00 +25°C° 0 mm 5 m/s 761 mmHg 78%
21:00 +25°C° 0 mm 4 m/s 761 mmHg 80%
22:00 +25°C° 0 mm 4 m/s 761 mmHg 81%
23:00 +25°C° 0 mm 4 m/s 761 mmHg 81%

Poimâine, 7 August, Vineri

Timp Temperatura Precipitaţii Vânt Presiune Umiditate
00:00 +25°C° 0 mm 4 m/s 761 mmHg 82%
01:00 +25°C° 0 mm 5 m/s 761 mmHg 82%
02:00 +25°C° 0 mm 5 m/s 760 mmHg 82%
03:00 +25°C° 0 mm 5 m/s 760 mmHg 82%
04:00 +25°C° 0 mm 5 m/s 760 mmHg 82%
05:00 +25°C° 0 mm 5 m/s 760 mmHg 81%
06:00 +25°C° 0 mm 5 m/s 760 mmHg 81%
07:00 +26°C° 0 mm 5 m/s 761 mmHg 79%
08:00 +26°C° 0 mm 5 m/s 761 mmHg 76%
09:00 +27°C° 0 mm 5 m/s 762 mmHg 74%
10:00 +27°C° 0 mm 5 m/s 762 mmHg 70%
11:00 +28°C° 0 mm 5 m/s 761 mmHg 66%
12:00 +29°C° 0 mm 5 m/s 761 mmHg 62%
13:00 +29°C° 0 mm 5 m/s 761 mmHg 61%
14:00 +29°C° 0 mm 5 m/s 760 mmHg 61%
15:00 +29°C° 0 mm 6 m/s 759 mmHg 60%
16:00 +28°C° 0 mm 5 m/s 760 mmHg 64%
17:00 +27°C° 0 mm 5 m/s 760 mmHg 69%
18:00 +26°C° 0 mm 4 m/s 760 mmHg 73%
19:00 +25°C° 0 mm 4 m/s 761 mmHg 76%
20:00 +25°C° 0 mm 4 m/s 761 mmHg 79%
21:00 +25°C° 0 mm 3 m/s 761 mmHg 81%
22:00 +25°C° 0 mm 3 m/s 761 mmHg 83%
23:00 +24°C° 0 mm 3 m/s 761 mmHg 84%

8 August, Sâmbătă

Timp Temperatura Precipitaţii Vânt Presiune Umiditate
00:00 +24°C° 0 mm 3 m/s 761 mmHg 85%
01:00 +24°C° 0 mm 3 m/s 761 mmHg 85%
02:00 +24°C° 0 mm 3 m/s 760 mmHg 86%
03:00 +23°C° 0 mm 4 m/s 760 mmHg 86%
04:00 +25°C° 0 mm 4 m/s 760 mmHg 84%
05:00 +25°C° 0 mm 4 m/s 760 mmHg 82%
06:00 +25°C° 0 mm 4 m/s 761 mmHg 80%
07:00 +26°C° 0 mm 4 m/s 761 mmHg 76%
08:00 +27°C° 0 mm 4 m/s 762 mmHg 73%
09:00 +28°C° 0 mm 5 m/s 762 mmHg 69%
10:00 +29°C° 0 mm 5 m/s 762 mmHg 65%
11:00 +29°C° 0 mm 5 m/s 761 mmHg 61%
12:00 +30°C° 0 mm 5 m/s 761 mmHg 57%
13:00 +30°C° 0 mm 5 m/s 761 mmHg 57%
14:00 +30°C° 0 mm 5 m/s 760 mmHg 57%
15:00 +30°C° 0 mm 5 m/s 759 mmHg 57%
16:00 +29°C° 0 mm 4 m/s 759 mmHg 63%
17:00 +28°C° 0 mm 4 m/s 760 mmHg 69%
18:00 +26°C° 0 mm 4 m/s 760 mmHg 75%
19:00 +26°C° 0 mm 3 m/s 760 mmHg 79%
20:00 +26°C° 0 mm 3 m/s 761 mmHg 82%
21:00 +25°C° 0 mm 3 m/s 761 mmHg 86%
22:00 +25°C° 0 mm 3 m/s 761 mmHg 87%
23:00 +25°C° 0 mm 3 m/s 761 mmHg 88%

9 August, Duminică

Timp Temperatura Precipitaţii Vânt Presiune Umiditate
00:00 +25°C° 0 mm 4 m/s 761 mmHg 88%
01:00 +25°C° 0 mm 4 m/s 760 mmHg 88%
02:00 +23°C° 0 mm 4 m/s 760 mmHg 88%
03:00 +24°C° 0 mm 3 m/s 760 mmHg 88%
04:00 +24°C° 0 mm 3 m/s 760 mmHg 88%
05:00 +24°C° 0 mm 3 m/s 760 mmHg 89%
06:00 +24°C° 0 mm 3 m/s 760 mmHg 89%
07:00 +26°C° 0 mm 3 m/s 761 mmHg 81%
08:00 +27°C° 0 mm 3 m/s 761 mmHg 74%
09:00 +29°C° 0 mm 4 m/s 762 mmHg 66%
10:00 +29°C° 0.1 mm 4 m/s 761 mmHg 64%
11:00 +30°C° 0.1 mm 4 m/s 761 mmHg 61%
12:00 +32°C° 0.1 mm 5 m/s 760 mmHg 58%
13:00 +30°C° 0 mm 5 m/s 759 mmHg 58%
14:00 +30°C° 0 mm 5 m/s 759 mmHg 59%
15:00 +30°C° 0 mm 5 m/s 758 mmHg 59%
16:00 +29°C° 0 mm 5 m/s 758 mmHg 65%
17:00 +28°C° 0 mm 4 m/s 758 mmHg 70%
18:00 +26°C° 0 mm 4 m/s 758 mmHg 75%
19:00 +26°C° 0 mm 4 m/s 759 mmHg 78%
20:00 +26°C° 0 mm 4 m/s 760 mmHg 81%
21:00 +25°C° 0 mm 4 m/s 760 mmHg 84%
22:00 +25°C° 0 mm 4 m/s 760 mmHg 85%
23:00 +25°C° 0 mm 4 m/s 760 mmHg 86%

10 August, Luni

Timp Temperatura Precipitaţii Vânt Presiune Umiditate
00:00 +25°C° 0 mm 4 m/s 760 mmHg 87%
01:00 +23°C° 0 mm 4 m/s 760 mmHg 87%
02:00 +23°C° 0 mm 4 m/s 759 mmHg 88%
03:00 +23°C° 0 mm 4 m/s 759 mmHg 88%
04:00 +23°C° 0.1 mm 4 m/s 759 mmHg 89%
05:00 +24°C° 0.1 mm 3 m/s 760 mmHg 90%
06:00 +24°C° 0.1 mm 3 m/s 760 mmHg 90%
07:00 +25°C° 0.1 mm 3 m/s 760 mmHg 82%
08:00 +27°C° 0.1 mm 4 m/s 760 mmHg 74%
09:00 +29°C° 0.1 mm 4 m/s 761 mmHg 66%
10:00 +29°C° 0 mm 5 m/s 760 mmHg 63%
11:00 +30°C° 0 mm 5 m/s 760 mmHg 60%
12:00 +30°C° 0 mm 5 m/s 759 mmHg 57%
13:00 +30°C° 0 mm 5 m/s 759 mmHg 56%
14:00 +30°C° 0 mm 5 m/s 758 mmHg 56%
15:00 +30°C° 0 mm 5 m/s 758 mmHg 55%
16:00 +29°C° 0 mm 4 m/s 758 mmHg 62%
17:00 +28°C° 0 mm 4 m/s 758 mmHg 68%
18:00 +26°C° 0 mm 4 m/s 758 mmHg 75%
19:00 +26°C° 0 mm 4 m/s 759 mmHg 77%
20:00 +25°C° 0 mm 4 m/s 759 mmHg 79%
21:00 +25°C° 0 mm 4 m/s 760 mmHg 81%
22:00 +23°C° 0 mm 4 m/s 760 mmHg 82%
23:00 +24°C° 0 mm 3 m/s 760 mmHg 84%
Arată mai mult